星链-34694(STARLINK-34694)

导读

STARLINK-34694是美国SpaceX星链星座中的一颗卫星,于2025年10月26日发射升空。星链项目旨在构建全球卫星互联网星座,为全球范围提供低延迟、高速率的互联网接入服务,该卫星入轨后将进一步扩充星链星座规模,助力提升星座的全球覆盖能力与服务稳定性。

Basic Information
目录编号:
66189
目录名称:
STARLINK-34694
国际标识:
2025-243N
轨道中心:
EARTH
卫星名称:
星链-34694
卫星全名:
星链-34694(STARLINK-34694)
卫星状态:
在轨 (已飞行314 天)
发射日期:
2025-10-26 UTC
国别 :
美国 (US)
星等 :
--
Orbit Information
数据来源 国际轨道数据 AOE轨道数据
星历时间 2026-09-05T17:12:09+0800
10小时前
查看轨道信息
2026-09-04T23:00:00+0800
1天前
查看轨道信息
半长轴 6840.849km 6840.919km
偏心率 0.0001271 0.0001176
轨道倾角 53.160° 53.161°
近地点辐角 90.029° 85.546°
升交点赤经 130.031° 133.580°
平近点角 270.086° 42.745°
近地点 461.842km 461.977km
远地点 463.582km 463.587km
周期 93.848分钟 93.849分钟
每日圈数 15.343972 15.343737
Detailed Information
固有亮度:
5
最大亮度:
2.5
卫星平台:
Starlink V1.0
覆盖范围:
全球
运营商:
太空探索技术公司
运营商所在国:
美国
制造商(研发单位):
太空探索技术公司
制造商所在国:
美国
使用方式:
暂无
Satellite Introduction
Starlink 计划是 SpaceX 推出的全球卫星互联网项目,通过发射低轨道卫星,为全球尤其是偏远地区提供高速、低延迟的互联网服务。自 2019 年起,Starlink 已部署数千颗卫星,旨在缩小全球数字鸿沟,推动互联网普及。该项目还为军事、航空等行业提供通信支持,带来广泛经济效益。
2D Orbit Map
3D Orbit Map
Orbit Altitude Analysis Chart
Orbit Inclination Analysis Chart
Orbit Comprehensive Analysis Chart
View Comprehensive Chart
Conjunction Data List
Event ID Objects TCA Miss Dist (km) Collision Risk Probability Collision Risk Index (CRI) Action
CDM_260907-153906-460606-618921
2026-09-07T
15:39:34+0000
2.412 km
极远距离
1.363269E-6 低风险 0.38